Regional Weather Roundup
Issued by NWS New Orleans/Baton Rouge, LA

Home | Current Version | Previous Version | Text Only | Print | Product List | Glossary On
Versions: 1 2 3 4 5 6 7 8 9 10 11 12 13 14 15 16 17 18 19 20 21 22 23 24 25 26 27
000
ASUS44 KLIX 261613
RWRLIX
NEW ORLEANS REGIONAL WEATHER ROUNDUP
NATIONAL WEATHER SERVICE NEW ORLEANS LA
1100 AM CDT SUN MAR 26 2017

NOTE: "FAIR" INDICATES FEW OR NO CLOUDS BELOW 12,000 FEET WITH NO
      SIGNIFICANT WEATHER AND/OR OBSTRUCTIONS TO VISIBILITY.
      SKY/WX - SKY CONDITION AND SIGNIFICANT WEATHER.
      TMP - AIR TEMPERATURE.     DP    - DEWPOINT TEMPERATURE.
      RH  - RELATIVE HUMIDITY.   PRES  - PRESSURE.
      HI  - HEAT INDEX.          WCI   - WIND CHILL INDEX.

*  THESE STATIONS ARE NOT NWS OR FAA STATIONS AND ARE NOT UNDER
   NWS QUALITY CONTROL.

LAZ038-040-048-061>063-065>067-069-261700-
SOUTHEAST LOUISIANA

CITY           SKY/WX    TMP DP  RH WIND       PRES   REMARKS
N.O. INTL ARPT PTSUNNY   75  67  76 W3        30.05S
N.O. LAKEFRONT MOSUNNY   77  68  73 S6        30.06S
N.O. DOWNTOWN*   N/A     77  67  71 S8        30.07R
RESERVE*       CLOUDY    78  70  76 SE7       30.05S
SLIDELL        PTSUNNY   75  68  78 S8        30.06R
BATON ROUGE    PTSUNNY   76  68  76 SW8       30.04R
BOOTHVILLE     MOSUNNY   75  70  84 S9        30.08R
BELLE CHASSE   PTSUNNY   75  68  78 SE9       30.06R
BOGALUSA*      NOT AVBL
GALLIANO*      PTSUNNY   76  67  73 S6        30.06R
NEW ROADS*       N/A     69  67  91 S5        30.05R
GONZALES*      PTSUNNY   76  69  78 SE7       30.04R
HAMMOND*       MOSUNNY   73  64  73 S3        30.05S
HOUMA*         PTSUNNY   77  68  73 S6        30.05R
PORT FOURCHON* PTSUNNY   75  68  78 S9        30.06S

$$

MSZ070-080>082-261700-
SOUTHERN MISSISSIPPI

CITY           SKY/WX    TMP DP  RH WIND       PRES   REMARKS
MCCOMB         PTSUNNY   72  63  73 W6        30.05S
GULFPORT       MOSUNNY   76  69  79 S8        30.08R
BILOXI         SUNNY     76  68  77 S7        30.08R
PASCAGOULA     PTSUNNY   77  64  64 S6        30.09R
STENNIS ARPT*  PTSUNNY   72  64  78 S9        30.08R

$$

COASTAL OBSERVATIONS
LAKE AND NEARSHORE STATIONS

STATION/POSITION TIME  TEMP    WIND        PRES    WAVE
                       AIR SEA DIR/SP/G            HT/PER
                 (UTC) (F)     (DEG/KT/KT) (MB)    (FT/S)
PASCAGOULA       1548   74     170/  7/ 11 1018.5
WAVELAND YACHT   1548   72 71  160/ 10/ 11 1018.1
GRAND ISLE       1548   74 73  160/  5/  6 1017.9
SOUTHWEST PASS   1548          150/  3/  3   N/A
NEW CANAL        1548   74 71  200/  3/  5 1017.8
SHELL BEACH      1548   74 72  170/  6/  9 1018.4

OFFSHORE STATIONS

STATION/POSITION TIME  TEMP    WIND        PRES    WAVE
                       AIR SEA DIR/SP/G            HT/PER
                 (UTC) (F)     (DEG/KT/KT) (MB)    (FT/S)
64 S DAUPHIN ISL 1550   73 73  170/  6/  8 1019.0    4/ 8

$$





USA.gov is the U.S. government's official web portal to all federal, state and local government web resources and services.